Weather History for Montgomery, NY

Change the Weather History Date:

Saturday, September 14, 2013

  Actual Average (KPOU) Record (KPOU)
Temperature  
Mean Temperature 57 °F 64 °F  
Max Temperature 66 °F 76 °F 89 °F (2005)
Min Temperature 48 °F 52 °F 33 °F (1963)
Degree Days  
Heating Degree Days 8 3  
Month to date heating degree days 30  
Since 1 July heating degree days 47  
Cooling Degree Days 0 2  
Month to date cooling degree days 45  
Year to date cooling degree days 649  
Growing Degree Days 7 (Base 50)    
Moisture  
Dew Point 45 °F    
Average Humidity 66    
Maximum Humidity 86    
Minimum Humidity 48    
Precipitation  
Precipitation 0.00 in 0.14 in 1.59 in (1989)
Month to date precipitation 1.93  
Year to date precipitation 32.71  
Sea Level Pressure  
Sea Level Pressure 29.99 in    
Wind  
Wind Speed 6 mph (WNW)    
Max Wind Speed 15 mph    
Max Gust Speed 22 mph    
Visibility 10 miles    
Events      
T = Trace of Precipitation, MM = Missing Value Source: NWS Daily Summary

Daily Weather History Graph

Daily Weather History Graph

Search for Another Location

Airport:

Trip Planner

Search our weather history database for the weather conditions in past years. The results will help you decide how hot, cold, wet, or windy it might be!

Date:

Astronomy

Sep. 14, 2013 Rise Set
Actual Time 6:36 AM EDT 7:07 PM EDT
Civil Twilight 6:08 AM EDT 7:35 PM EDT
Nautical Twilight 5:35 AM EDT 8:08 PM EDT
Astronomical Twilight 5:02 AM EDT 8:41 PM EDT
Moon 3:49 PM EDT (9/14) 1:02 AM EDT (9/14)
Length of Visible Light 13h 26m
Length of Day
12h 31m
Waxing Gibbous, 72% of the Moon is Illuminated
Sep 14
Waxing Gibbous
Sep 19
Full
Sep 26
Last Quarter
Oct 4
New
Oct 11
First Quarter

Hourly Weather History & Observations

Time (EDT) Temp. Dew Point Humidity Pressure Visibility Wind Dir Wind Speed Gust Speed Precip Events Conditions
12:54 AM 53.1 °F 45.0 °F 74% 29.87 in 10.0 mi Calm Calm - N/A   Partly Cloudy
1:54 AM 52.0 °F 45.0 °F 77% 29.88 in 10.0 mi WNW 4.6 mph - N/A   Clear
2:54 AM 52.0 °F 44.1 °F 74% 29.89 in 10.0 mi NW 4.6 mph - N/A   Clear
3:54 AM 51.1 °F 43.0 °F 74% 29.90 in 10.0 mi NW 9.2 mph - N/A   Clear
4:54 AM 50.0 °F 43.0 °F 77% 29.91 in 10.0 mi WNW 5.8 mph - N/A   Clear
5:54 AM 50.0 °F 43.0 °F 77% 29.93 in 10.0 mi NW 6.9 mph - N/A   Clear
6:54 AM 51.1 °F 43.0 °F 74% 29.94 in 10.0 mi NW 9.2 mph - N/A   Clear
7:54 AM 54.0 °F 45.0 °F 72% 29.97 in 10.0 mi NNW 4.6 mph - N/A   Clear
8:54 AM 57.0 °F 45.0 °F 64% 29.98 in 10.0 mi NW 9.2 mph - N/A   Clear
9:54 AM 60.1 °F 46.0 °F 60% 29.99 in 10.0 mi NW 8.1 mph - N/A   Clear
10:54 AM 63.0 °F 46.0 °F 54% 29.99 in 10.0 mi NW 9.2 mph - N/A   Clear
11:54 AM 64.0 °F 46.0 °F 52% 29.99 in 10.0 mi Variable 5.8 mph - N/A   Mostly Cloudy
12:54 PM 64.9 °F 46.0 °F 50% 29.99 in 10.0 mi WNW 11.5 mph 20.7 mph N/A   Scattered Clouds
1:54 PM 66.0 °F 48.0 °F 52% 29.99 in 10.0 mi NNW 9.2 mph - N/A   Overcast
2:54 PM 64.0 °F 46.0 °F 52% 29.99 in 10.0 mi West 6.9 mph - N/A   Mostly Cloudy
3:54 PM 64.9 °F 46.0 °F 50% 30.00 in 10.0 mi WNW 15.0 mph 21.9 mph N/A   Scattered Clouds
4:54 PM 64.0 °F 44.1 °F 48% 30.01 in 10.0 mi NW 9.2 mph - N/A   Partly Cloudy
5:54 PM 62.1 °F 44.1 °F 52% 30.04 in 10.0 mi NW 9.2 mph 17.3 mph N/A   Partly Cloudy
6:54 PM 57.9 °F 44.1 °F 60% 30.06 in 10.0 mi WNW 5.8 mph - N/A   Clear
7:54 PM 55.9 °F 44.1 °F 64% 30.08 in 10.0 mi NW 5.8 mph - N/A   Clear
8:54 PM 54.0 °F 44.1 °F 69% 30.10 in 10.0 mi Calm Calm - N/A   Scattered Clouds
9:54 PM 50.0 °F 45.0 °F 83% 30.11 in 10.0 mi Calm Calm - N/A   Clear
10:54 PM 48.0 °F 44.1 °F 86% 30.12 in 10.0 mi SSW 3.5 mph - N/A   Clear
11:54 PM 48.0 °F 43.0 °F 83% 30.13 in 10.0 mi South 3.5 mph - N/A   Clear